This is the latest recevied weather packets stored in our database for station/object KC0AFB. If no packets are shown the sender has not sent any weather packets the latest 10 day(s).
| Time | Temp. | Humidity | Pressure | Rain* | Wind** | Luminosity | Snow |
|---|---|---|---|---|---|---|---|
| 1778201644 | 15° C | 31% | 1008.4 hPa | 0 mm | - | 54 W/m² | - |
| 1778201341 | 15° C | 30% | 1008.4 hPa | 0 mm | - | 68 W/m² | - |
| 1778201036 | 15.56° C | 30% | 1008.5 hPa | 0 mm | - | 75 W/m² | - |
| 1778200733 | 15.56° C | 29% | 1008.2 hPa | 0 mm | - | 96 W/m² | - |
| 1778200430 | 15.56° C | 30% | 1008.6 hPa | 0 mm | - | 61 W/m² | - |
| 1778200127 | 16.11° C | 30% | 1008.4 hPa | 0 mm | - | 70 W/m² | - |
| 1778199824 | 16.11° C | 29% | 1008.3 hPa | 0 mm | - | 135 W/m² | - |
| 1778199520 | 15.56° C | 28% | 1008.5 hPa | 0 mm | - | 119 W/m² | - |
| 1778199216 | 16.11° C | 27% | 1008.7 hPa | 0 mm | - | 88 W/m² | - |
| 1778198913 | 16.67° C | 27% | 1008.5 hPa | 0 mm | - | 108 W/m² | - |
| 1778198609 | 16.67° C | 27% | 1008.5 hPa | 0 mm | - | 164 W/m² | - |
| 1778198306 | 16.67° C | 29% | 1008.7 hPa | 0 mm | - | 180 W/m² | - |
| 1778198004 | 16.11° C | 28% | 1008.8 hPa | 0 mm | - | 186 W/m² | - |
| 1778197700 | 16.11° C | 27% | 1008.6 hPa | 0 mm | - | 170 W/m² | - |
| 1778197397 | 16.67° C | 26% | 1008.7 hPa | 0 mm | - | 213 W/m² | - |
| 1778197093 | 16.67° C | 25% | 1008.8 hPa | 0 mm | - | 215 W/m² | - |
| 1778196791 | 16.67° C | 26% | 1008.7 hPa | 0 mm | - | 243 W/m² | - |
| 1778196489 | 16.67° C | 29% | 1008.6 hPa | 0 mm | - | 260 W/m² | - |
| 1778196185 | 16.67° C | 26% | 1008.8 hPa | 0 mm | - | 274 W/m² | - |
| 1778195882 | 16.67° C | 26% | 1008.7 hPa | 0 mm | - | 308 W/m² | - |
| 1778195579 | 16.67° C | 26% | 1008.7 hPa | 0 mm | - | 317 W/m² | - |
| 1778195275 | 16.67° C | 27% | 1008.6 hPa | 0 mm | - | 323 W/m² | - |
| 1778194973 | 16.67° C | 26% | 1008.6 hPa | 0 mm | - | 334 W/m² | - |
| 1778194672 | 16.67° C | 24% | 1008.8 hPa | 0 mm | - | 353 W/m² | - |
| 1778194369 | 17.22° C | 27% | 1008.7 hPa | 0 mm | - | 366 W/m² | - |
* Rain latest hour (hover to see other rain measurements)
** Current wind speed in m/s (hover to see current wind gust speed)